Location: Carrières
(48.9495°N, 2.0407°E)
Time: 17:25:57
(UTC+00:00)

Cosmos 1606 Rocket - Pass Details

Date: 24 June 2024
Orbit: 599 x 628 km, 82.5° (Epoch: 15 July)

Event Time Altitude Azimuth Distance (km) Brightness Sun altitude
Rises 01:21:47 0° 348° (NNW) 2,917 8.0 -15.1°
Reaches altitude 10° 01:24:02 10° 347° (NNW) 2,001 7.0 -14.9°
Maximum altitude 01:28:27 72° 264° (W) 653 3.5 -14.7°
Enters shadow 01:31:10 22° 183° (S) 1,334 4.7 -14.5°
